Terminal Aerodrome Forecast
Issued by NWS

Home | Current Version | Previous Version | Text Only | Print | Product List | Glossary On
Versions: 1 2 3 4 5 6 7 8 9 10 11 12
000
FTUS42 TJSJ 281700
TAFISX
TAF
TISX 281739Z 2818/2918 11013KT P6SM VCSH SCT025
     FM282200 06008KT P6SM FEW025
     FM291300 11013KT P6SM SCT025=

USA.gov is the U.S. government's official web portal to all federal, state and local government web resources and services.